Home   Weather   Volgograd   Past weeks

Flag for Russia Past Weather in Volgograd, Russia — Yesterday and Last 2 Weeks

Now
48 °F

Partly sunny.


Feels Like: 43 °F
Forecast: 44 / 56 °F
Wind: 13 mph from West

Location: Volgograd Airport

Current Time: Sep 27, 2016 at 6:47:35 AM

Latest Report: Sep 27, 2016 at 6:00 AM


Visibility: N/A

Pressure: 29.83 "Hg

Humidity: 100%

Dew Point: 48 °F

Location of VolgogradLocation

Past Weather in Volgograd — Graph

°F

Volgograd Temperature Yesterday

Maximum temperature yesterday: 52 °F (at 12:30 PM)
Minimum temperature yesterday: 46 °F (at 12:00 AM)
Average temperature yesterday: 48 °F

High & Low Weather Summary for the Past Weeks

 TemperatureHumidityPressure
High82 °F (Sep 13, 3:00 PM)100% (Sep 16, 6:00 AM)30.12 "Hg (Sep 16, 6:00 AM)
Low39 °F (Sep 16, 3:00 AM)28% (Sep 13, 3:00 PM)29.59 "Hg (Sep 21, 7:00 AM)
Average56 °F71%29.85 "Hg
* Reported Sep 12 5:00 AM — Sep 27 5:30 AM, Volgograd, Weather by CustomWeather, © 2016

Note: Actual official high and low records may vary slightly from our data, if they occured in-between our weather recording intervals... More about our weather records

Advertising

Volgograd Weather History for the Previous 24 Hours

Scroll right to see more
 ConditionsComfort  
Time TempWeatherWind HumidityBarometerVisibility
5:30 AM
Tue, Sep 27
48 °FPartly sunny.10 mph100%29.80 "HgN/A
5:00 AM50 °FPartly sunny.10 mph94%29.80 "HgN/A
4:00 AM50 °FPassing clouds.13 mph94%29.80 "HgN/A
3:30 AM48 °FPassing clouds.13 mph100%29.80 "HgN/A
3:00 AM48 °FPassing clouds.13 mph100%29.80 "HgN/A
2:30 AM48 °FPassing clouds.13 mph94%29.80 "HgN/A
2:00 AM48 °FPassing clouds.10 mph94%29.83 "HgN/A
1:30 AM48 °FPassing clouds.13 mph94%29.83 "HgN/A
1:00 AM48 °FLight rain. Passing clouds.10 mph94%29.83 "HgN/A
12:00 AM48 °FPassing clouds.8 mph94%29.83 "HgN/A
11:30 PM
Mon, Sep 26
48 °FPartly cloudy.8 mph100%29.83 "HgN/A
11:00 PM48 °FPassing clouds.10 mph100%29.83 "HgN/A
10:30 PM48 °FPassing clouds.8 mph100%29.83 "HgN/A
10:00 PM48 °FPartly cloudy.8 mph94%29.83 "HgN/A
9:30 PM48 °FPartly cloudy.8 mph100%29.83 "HgN/A
9:00 PM48 °FPassing clouds.8 mph94%29.83 "HgN/A
8:30 PM48 °FPartly cloudy.8 mph94%29.83 "HgN/A
8:00 PM48 °FSprinkles. Passing clouds.8 mph94%29.83 "HgN/A
7:30 PM48 °FSprinkles. Partly cloudy.8 mph100%29.83 "HgN/A
7:00 PM48 °FSprinkles. Passing clouds.8 mph100%29.80 "HgN/A
6:30 PM48 °FSprinkles. Partly cloudy.8 mph100%29.80 "HgN/A
6:00 PM50 °FPartly cloudy.10 mph94%29.80 "HgN/A
5:30 PM50 °FPartly cloudy.8 mph94%29.80 "HgN/A
5:00 PM50 °FPassing clouds.10 mph94%29.80 "HgN/A
4:30 PM50 °FPartly sunny.13 mph94%29.77 "HgN/A
4:00 PM50 °FSprinkles. Partly sunny.13 mph94%29.77 "HgN/A
3:30 PM50 °FSprinkles. Partly sunny.15 mph94%29.77 "Hg5 mi
3:00 PM50 °FSprinkles. Partly sunny.15 mph94%29.74 "Hg4 mi
2:30 PM52 °FSprinkles. Partly sunny.13 mph94%29.74 "HgN/A
2:00 PM50 °FSprinkles. Partly sunny.8 mph100%29.74 "HgN/A
1:30 PM52 °FSprinkles. Mostly cloudy.8 mph94%29.71 "Hg4 mi
1:00 PM52 °FSprinkles. More clouds than sun.6 mph94%29.71 "Hg5 mi
12:30 PM52 °FSprinkles. Partly sunny.6 mph94%29.71 "Hg5 mi
12:00 PM50 °FLight rain. Low clouds.6 mph100%29.71 "Hg4 mi
11:30 AM50 °FLight rain. Fog.6 mph100%29.71 "Hg3 mi
11:00 AM50 °FLight rain. Low clouds.8 mph94%29.71 "Hg5 mi
10:30 AM48 °FLight rain. Fog.8 mph100%29.71 "Hg2 mi
10:00 AM48 °FLight rain. Fog.8 mph100%29.74 "Hg2 mi
9:30 AM48 °FLight rain. Fog.8 mph100%29.74 "Hg2 mi
9:00 AM48 °FLight rain. Fog.8 mph100%29.74 "Hg2 mi
8:30 AM48 °FLight rain. Fog.8 mph94%29.74 "Hg2 mi
8:00 AM48 °FLight rain. Fog.8 mph94%29.74 "Hg2 mi
7:30 AM46 °FMostly cloudy.8 mph100%29.74 "HgN/A
7:00 AM46 °FSprinkles. Mostly cloudy.8 mph100%29.74 "Hg3 mi
6:00 AM46 °FLight rain. Low clouds.8 mph100%29.74 "HgN/A
Weather by CustomWeather, © 2016

See weather overviewHow to use our weather pages